When you browse on this site, cookies collect data to enhance your experience and personalize the content and advertising you see.
Visit our Privacy Policy to learn more. By continuing to use the site, you agree to this use of cookies and data.
  • In Hungary
  • List of Countries
  • For 7 days
  • Water Temperature
  • Satellite Maps
  • Weather Map
  • News
  • Weather Widgets
  • user-avatar
    Login

    Hourly Weather Manama

    Today, 21 April, Sunday

    Time Temperature Precipitation Wind Pressure Humidity
    00:00 +27°C° 0 mm 6 mps 756 mmHg 55%
    01:00 +27°C° 0 mm 6 mps 755 mmHg 56%
    02:00 +27°C° 0 mm 6 mps 755 mmHg 57%
    03:00 +26°C° 0 mm 7 mps 755 mmHg 57%
    04:00 +26°C° 0 mm 7 mps 755 mmHg 59%
    05:00 +26°C° 0 mm 8 mps 755 mmHg 62%
    06:00 +26°C° 0 mm 8 mps 756 mmHg 64%
    07:00 +26°C° 0 mm 7 mps 756 mmHg 63%
    08:00 +27°C° 0 mm 6 mps 756 mmHg 61%
    09:00 +27°C° 0 mm 6 mps 756 mmHg 59%
    10:00 +28°C° 0 mm 6 mps 756 mmHg 56%
    11:00 +28°C° 0 mm 5 mps 755 mmHg 52%
    12:00 +29°C° 0 mm 5 mps 755 mmHg 48%
    13:00 +29°C° 0 mm 5 mps 755 mmHg 46%
    14:00 +30°C° 0 mm 5 mps 755 mmHg 44%
    15:00 +30°C° 0 mm 5 mps 754 mmHg 42%
    16:00 +30°C° 0.1 mm 4 mps 754 mmHg 45%
    17:00 +29°C° 0.1 mm 4 mps 754 mmHg 47%
    18:00 +28°C° 0.1 mm 3 mps 754 mmHg 50%
    19:00 +28°C° 0 mm 3 mps 754 mmHg 51%
    20:00 +28°C° 0 mm 3 mps 754 mmHg 51%
    21:00 +27°C° 0 mm 3 mps 755 mmHg 51%
    22:00 +27°C° 0 mm 3 mps 754 mmHg 51%
    23:00 +27°C° 0 mm 2 mps 754 mmHg 51%

    Tomorrow, 22 April, Monday

    Time Temperature Precipitation Wind Pressure Humidity
    00:00 +27°C° 0 mm 2 mps 754 mmHg 51%
    01:00 +27°C° 0 mm 2 mps 754 mmHg 51%
    02:00 +27°C° 0 mm 2 mps 753 mmHg 51%
    03:00 +27°C° 0 mm 2 mps 753 mmHg 51%
    04:00 +27°C° 0.1 mm 2 mps 754 mmHg 54%
    05:00 +27°C° 0.1 mm 2 mps 754 mmHg 56%
    06:00 +26°C° 0.1 mm 2 mps 754 mmHg 59%
    07:00 +27°C° 0.3 mm 2 mps 755 mmHg 55%
    08:00 +28°C° 0.3 mm 2 mps 755 mmHg 52%
    09:00 +29°C° 0.3 mm 1 mps 756 mmHg 48%
    10:00 +30°C° 0.2 mm 2 mps 756 mmHg 45%
    11:00 +31°C° 0.2 mm 2 mps 756 mmHg 41%
    12:00 +33°C° 0.2 mm 3 mps 757 mmHg 38%
    13:00 +32°C° 0.1 mm 6 mps 757 mmHg 41%
    14:00 +29°C° 0.1 mm 9 mps 757 mmHg 45%
    15:00 +28°C° 0.1 mm 12 mps 757 mmHg 49%
    16:00 +27°C° 0.1 mm 11 mps 757 mmHg 51%
    17:00 +26°C° 0.1 mm 11 mps 757 mmHg 52%
    18:00 +24°C° 0.1 mm 11 mps 757 mmHg 54%
    19:00 +24°C° 0 mm 10 mps 758 mmHg 52%
    20:00 +24°C° 0 mm 10 mps 758 mmHg 51%
    21:00 +24°C° 0 mm 10 mps 759 mmHg 49%
    22:00 +24°C° 0 mm 10 mps 759 mmHg 47%
    23:00 +24°C° 0 mm 11 mps 759 mmHg 45%

    Day after tomorrow, 23 April, Tuesday

    Time Temperature Precipitation Wind Pressure Humidity
    00:00 +24°C° 0 mm 11 mps 759 mmHg 42%
    01:00 +24°C° 0 mm 11 mps 759 mmHg 42%
    02:00 +24°C° 0 mm 12 mps 759 mmHg 42%
    03:00 +24°C° 0 mm 12 mps 758 mmHg 42%
    04:00 +24°C° 0 mm 12 mps 759 mmHg 42%
    05:00 +24°C° 0 mm 12 mps 760 mmHg 42%
    06:00 +24°C° 0 mm 11 mps 760 mmHg 41%
    07:00 +24°C° 0 mm 11 mps 761 mmHg 39%
    08:00 +26°C° 0 mm 11 mps 761 mmHg 37%
    09:00 +27°C° 0 mm 11 mps 762 mmHg 35%
    10:00 +27°C° 0 mm 11 mps 762 mmHg 35%
    11:00 +27°C° 0 mm 11 mps 762 mmHg 34%
    12:00 +28°C° 0 mm 11 mps 762 mmHg 33%
    13:00 +27°C° 0 mm 11 mps 761 mmHg 33%
    14:00 +27°C° 0 mm 11 mps 761 mmHg 32%
    15:00 +27°C° 0 mm 11 mps 761 mmHg 32%
    16:00 +26°C° 0 mm 11 mps 761 mmHg 33%
    17:00 +26°C° 0 mm 11 mps 761 mmHg 35%
    18:00 +24°C° 0 mm 10 mps 761 mmHg 36%
    19:00 +24°C° 0 mm 10 mps 762 mmHg 37%
    20:00 +24°C° 0 mm 9 mps 762 mmHg 38%
    21:00 +24°C° 0 mm 8 mps 763 mmHg 40%
    22:00 +24°C° 0 mm 8 mps 762 mmHg 40%
    23:00 +24°C° 0 mm 8 mps 762 mmHg 41%

    24 April, Wednesday

    Time Temperature Precipitation Wind Pressure Humidity
    00:00 +24°C° 0 mm 7 mps 762 mmHg 42%
    01:00 +24°C° 0 mm 8 mps 762 mmHg 44%
    02:00 +24°C° 0 mm 8 mps 762 mmHg 46%
    03:00 +23°C° 0 mm 8 mps 761 mmHg 48%
    04:00 +24°C° 0 mm 9 mps 762 mmHg 48%
    05:00 +24°C° 0 mm 9 mps 762 mmHg 49%
    06:00 +24°C° 0 mm 9 mps 762 mmHg 50%
    07:00 +24°C° 0 mm 9 mps 763 mmHg 46%
    08:00 +26°C° 0 mm 9 mps 763 mmHg 42%
    09:00 +27°C° 0 mm 9 mps 763 mmHg 38%
    10:00 +27°C° 0 mm 9 mps 763 mmHg 36%
    11:00 +28°C° 0 mm 10 mps 763 mmHg 34%
    12:00 +28°C° 0 mm 10 mps 762 mmHg 32%
    13:00 +28°C° 0 mm 10 mps 762 mmHg 32%
    14:00 +28°C° 0 mm 10 mps 762 mmHg 31%
    15:00 +28°C° 0 mm 10 mps 761 mmHg 30%
    16:00 +27°C° 0 mm 10 mps 761 mmHg 33%
    17:00 +26°C° 0 mm 10 mps 761 mmHg 35%
    18:00 +26°C° 0 mm 10 mps 761 mmHg 38%
    19:00 +26°C° 0 mm 9 mps 762 mmHg 38%
    20:00 +26°C° 0 mm 8 mps 762 mmHg 39%
    21:00 +24°C° 0 mm 7 mps 762 mmHg 40%
    22:00 +24°C° 0 mm 7 mps 762 mmHg 41%
    23:00 +24°C° 0 mm 7 mps 761 mmHg 41%

    25 April, Thursday

    Time Temperature Precipitation Wind Pressure Humidity
    00:00 +24°C° 0 mm 7 mps 761 mmHg 42%
    01:00 +24°C° 0 mm 7 mps 761 mmHg 42%
    02:00 +24°C° 0 mm 7 mps 761 mmHg 42%
    03:00 +24°C° 0 mm 7 mps 761 mmHg 41%
    04:00 +24°C° 0 mm 7 mps 761 mmHg 40%
    05:00 +24°C° 0 mm 7 mps 761 mmHg 39%
    06:00 +24°C° 0 mm 7 mps 761 mmHg 38%
    07:00 +26°C° 0 mm 8 mps 762 mmHg 34%
    08:00 +27°C° 0 mm 8 mps 762 mmHg 31%
    09:00 +28°C° 0 mm 8 mps 762 mmHg 27%
    10:00 +29°C° 0 mm 8 mps 762 mmHg 26%
    11:00 +29°C° 0 mm 8 mps 762 mmHg 24%
    12:00 +31°C° 0 mm 8 mps 761 mmHg 23%
    13:00 +31°C° 0 mm 8 mps 761 mmHg 25%
    14:00 +29°C° 0 mm 8 mps 760 mmHg 28%
    15:00 +29°C° 0 mm 8 mps 760 mmHg 30%
    16:00 +28°C° 0 mm 8 mps 760 mmHg 32%
    17:00 +27°C° 0 mm 7 mps 760 mmHg 35%
    18:00 +26°C° 0 mm 7 mps 760 mmHg 37%
    19:00 +26°C° 0 mm 6 mps 760 mmHg 38%
    20:00 +26°C° 0 mm 5 mps 760 mmHg 38%
    21:00 +26°C° 0 mm 5 mps 761 mmHg 39%
    22:00 +26°C° 0 mm 5 mps 760 mmHg 38%
    23:00 +26°C° 0 mm 5 mps 760 mmHg 37%

    26 April, Friday

    Time Temperature Precipitation Wind Pressure Humidity
    00:00 +26°C° 0 mm 5 mps 760 mmHg 36%
    01:00 +25°C° 0 mm 5 mps 759 mmHg 36%
    02:00 +25°C° 0 mm 5 mps 759 mmHg 36%
    03:00 +24°C° 0 mm 6 mps 759 mmHg 37%
    04:00 +24°C° 0 mm 6 mps 759 mmHg 37%
    05:00 +24°C° 0 mm 6 mps 760 mmHg 37%
    06:00 +24°C° 0 mm 6 mps 760 mmHg 36%
    07:00 +27°C° 0 mm 6 mps 760 mmHg 31%
    08:00 +28°C° 0 mm 6 mps 761 mmHg 25%
    09:00 +29°C° 0 mm 6 mps 761 mmHg 19%
    10:00 +30°C° 0 mm 6 mps 761 mmHg 18%
    11:00 +32°C° 0 mm 5 mps 761 mmHg 17%
    12:00 +33°C° 0 mm 5 mps 760 mmHg 16%
    13:00 +32°C° 0 mm 6 mps 760 mmHg 18%
    14:00 +32°C° 0 mm 6 mps 760 mmHg 20%
    15:00 +32°C° 0 mm 6 mps 759 mmHg 22%
    16:00 +30°C° 0 mm 6 mps 760 mmHg 26%
    17:00 +29°C° 0 mm 6 mps 760 mmHg 29%
    18:00 +28°C° 0 mm 6 mps 760 mmHg 33%
    19:00 +28°C° 0 mm 5 mps 760 mmHg 34%
    20:00 +27°C° 0 mm 4 mps 760 mmHg 36%
    21:00 +27°C° 0 mm 3 mps 761 mmHg 38%
    22:00 +27°C° 0 mm 3 mps 760 mmHg 37%
    23:00 +27°C° 0 mm 3 mps 760 mmHg 35%
    Show more